Location: Newark
(34.9500°N, 139.9667°E)
Time: 15:51:37
(UTC+00:00)

Vanguard 1 Rocket - Pass Details

Date: 12 December 2019
Orbit: 650 x 4226 km, 34.3° (Epoch: 19 January)

Event Time Altitude Azimuth Distance (km) Brightness Sun altitude
Rises 12:03:59 0° 254° (WSW) 7,941 12.7 -55.4°
Reaches altitude 10° 12:10:03 10° 253° (WSW) 6,499 12.0 -56.6°
Enters shadow 12:22:08 43° 250° (WSW) 3,376 10.2 -59.1°
Maximum altitude 12:28:41 82° 170° (S) 2,122 - -60.4°
Drops below altitude 10° 12:37:45 10° 84° (E) 3,428 - -62.1°
Sets 12:39:58 0° 83° (E) 4,117 - -62.6°
